Location: Unspecified
(0.0000°N, 0.0000°E)
Time: 18:18:11
(UTC+00:00)

N. Korean satellite - Pass Details

Date: 19 February 2019
Orbit: 457 x 508 km, 97.2° (Epoch: 17 April)

Event Time Altitude Azimuth Distance (km) Brightness Sun altitude
Rises 18:32:57 0° 198° (SSW) 2,613 10.7 -4.7°
Reaches altitude 10° 18:35:40 10° 219° (SW) 1,725 10.2 -5.4°
Maximum altitude 18:38:01 16° 259° (WSW) 1,376 10.4 -5.9°
Drops below altitude 10° 18:40:22 10° 298° (WNW) 1,716 10.2 -6.5°
Sets 18:43:04 0° 320° (NW) 2,591 10.7 -7.2°
